Theta_e
304 304 305 305 305 304 304 306 313 318 320 324 325 323 322 322 321 321 320 320 321 320 318 315 321 322 327 330 329 328 329 329 328 328 327 326 325 325 326 326 326 326 326 326 325
304 305 307 307 306 306 306 305 305 310 316 319 321 322 321 320 320 319 320 319 320 319 318 319 320 322 323 329 329 328 329 328 326 325 325 326 325 326 327 327 326 327 327 326 325
304 305 308 308 306 305 305 305 306 305 306 309 313 315 315 317 318 318 318 317 318 318 317 321 320 322 325 326 329 329 330 327 325 325 325 326 326 325 326 327 327 327 328 328 328
304 305 308 309 306 306 307 307 307 306 306 308 309 308 308 313 318 318 317 317 320 322 321 322 320 320 326 327 327 329 328 327 326 326 326 326 325 325 325 326 328 328 328 328 328
310 305 307 310 307 307 308 308 306 307 306 309 312 310 309 314 315 316 315 315 317 317 321 321 321 319 323 325 326 327 328 327 326 326 326 326 326 325 325 326 327 327 328 327 327
313 306 305 309 309 310 310 311 309 307 307 308 311 311 311 314 313 314 316 315 316 318 320 321 322 320 319 321 324 327 327 328 327 326 326 326 325 326 326 326 326 327 327 326 325
313 309 304 306 308 311 311 311 310 308 307 307 308 310 313 312 312 313 314 316 315 315 316 319 319 321 319 319 322 324 324 327 327 327 326 326 326 325 326 326 326 326 323 322 323
310 311 307 304 309 310 310 310 311 311 308 307 307 312 312 313 312 312 312 313 313 313 314 315 317 319 320 319 322 326 324 327 327 327 326 325 327 326 326 326 326 324 322 323 323
313 310 312 304 309 311 311 308 310 310 312 309 307 311 311 312 312 312 312 312 312 312 313 313 314 317 319 320 323 325 327 327 328 326 326 325 326 325 326 325 325 323 322 323 323
313 310 313 306 308 310 309 309 310 312 311 311 311 310 310 311 312 312 312 312 312 312 312 313 314 317 319 320 323 324 328 325 328 326 326 327 326 325 326 325 323 323 323 323 323
314 308 311 306 307 310 311 311 310 311 311 311 311 310 312 312 311 311 312 312 312 312 313 313 316 318 318 318 319 322 324 328 325 327 326 327 326 327 325 325 325 325 323 323 322
314 309 310 305 307 309 310 310 310 311 311 312 311 311 311 311 311 311 311 312 312 313 312 314 315 314 315 317 319 320 324 327 326 326 326 327 327 326 324 324 324 325 324 323 321
314 312 305 304 307 308 309 310 311 310 310 311 312 311 312 311 311 312 312 311 312 312 312 314 314 314 314 316 318 319 322 326 328 326 326 325 326 324 323 324 325 326 325 323 321
314 313 304 305 306 307 310 311 310 311 311 310 310 311 311 310 310 311 312 312 312 312 312 313 313 313 315 315 317 319 321 324 327 330 331 324 326 324 324 324 324 323 323 322 320
314 314 306 304 311 310 311 312 311 310 316 311 311 310 311 310 310 310 311 312 313 312 312 313 313 313 315 317 316 319 321 322 327 330 329 329 327 325 324 325 320 317 321 321 320
315 316 309 307 309 310 310 310 310 311 314 313 310 311 311 310 310 310 310 311 311 312 312 312 312 313 313 314 315 317 319 323 327 329 333 331 327 326 325 323 319 318 322 321 320
315 315 314 310 309 309 309 310 311 314 312 314 312 311 310 312 311 310 311 311 312 313 312 313 312 312 311 317 315 319 323 329 331 333 333 325 329 326 320 320 321 319 321 320 319
315 315 315 309 311 311 308 309 313 313 313 311 311 311 313 312 312 311 312 311 311 312 313 314 313 314 311 315 319 321 322 325 332 333 326 324 327 325 319 319 321 321 321 320 319
315 316 316 310 310 310 308 310 313 314 313 312 312 313 312 312 313 312 312 312 311 311 314 316 315 313 316 313 319 319 318 319 328 324 325 323 323 319 318 318 318 320 320 320 319
315 315 315 313 311 310 310 312 312 312 311 311 316 312 312 312 311 311 312 311 312 312 311 312 318 317 316 318 320 321 322 327 326 328 328 325 324 322 319 317 317 319 319 320 319
313 313 313 313 310 309 311 311 310 311 310 312 313 313 312 312 311 311 310 311 312 313 310 310 312 317 315 323 322 323 326 327 327 327 327 326 324 319 318 318 316 317 320 320 319
314 313 312 312 311 310 311 311 310 312 311 312 312 313 311 312 311 312 312 313 313 312 313 311 314 319 318 317 321 323 325 326 327 327 325 323 321 317 317 317 317 317 320 320 319
312 312 312 311 312 311 310 311 310 311 314 313 314 312 311 312 311 311 314 314 312 313 314 311 316 321 320 322 323 326 326 325 324 324 326 323 320 316 316 316 319 318 320 320 320
312 315 311 310 311 312 312 313 312 311 312 313 314 312 312 311 311 314 314 315 313 313 314 319 321 318 326 325 323 326 325 324 325 326 325 323 318 318 318 317 317 318 320 320 319
311 314 312 312 311 312 313 313 314 313 314 314 313 312 312 313 313 313 314 316 316 312 315 314 323 322 323 324 324 325 325 324 325 325 324 323 320 317 317 316 316 318 320 320 319
311 311 312 315 311 312 312 314 315 313 316 317 315 318 316 314 313 313 314 315 316 316 314 315 321 322 321 320 322 325 324 324 323 323 322 323 323 319 317 319 318 318 319 319 319
312 312 312 316 317 315 316 315 316 315 313 314 316 314 319 315 314 313 314 315 317 318 319 318 321 322 320 320 321 321 321 323 323 322 323 325 322 319 316 317 317 318 319 319 318
Wind_Speed
12 12 12 12 11 11 11 11 12 12 15 14 23 16 13 13 13 14 15 9 8 14 14 11 8 10 15 20 17 12 5 11 14 14 15 10 4 8 3 7 13 16 13 2 2
13 12 12 12 11 10 9 10 11 14 14 15 13 14 17 15 15 19 20 15 19 16 11 8 10 11 19 19 17 15 8 14 11 13 12 11 6 7 9 10 14 14 14 10 3
13 12 12 12 10 8 8 8 9 12 14 16 17 17 14 12 13 18 18 21 18 18 13 10 11 12 15 26 25 22 17 12 19 24 23 9 13 12 12 7 14 15 15 11 11
14 13 12 11 9 7 7 7 7 9 12 13 13 13 13 10 7 2 8 17 17 18 15 12 14 15 8 16 27 19 25 24 24 27 10 5 12 17 21 16 17 19 17 18 17
14 14 13 11 9 8 7 7 7 7 9 11 11 9 10 11 19 4 3 5 4 7 19 17 18 16 13 10 19 21 17 27 26 26 26 14 13 17 22 20 21 22 21 23 17
16 15 15 13 10 8 8 7 7 9 8 11 12 10 12 16 12 17 12 9 1 2 13 17 16 18 20 19 17 12 25 24 27 25 22 18 14 21 21 18 23 24 20 17 15
19 16 16 15 12 9 8 8 9 9 9 10 13 13 13 19 4 11 18 17 14 11 7 13 21 18 10 15 18 21 16 15 26 25 16 23 18 16 25 25 27 29 19 16 10
17 17 15 16 13 11 9 10 10 9 11 12 9 8 11 13 18 12 9 15 21 17 15 15 8 18 22 12 13 8 11 12 19 13 24 16 16 12 26 30 28 15 6 4 7
17 16 16 14 14 13 12 11 11 12 12 11 7 8 10 9 21 21 21 14 10 9 10 15 12 11 14 7 6 10 12 22 15 19 15 17 17 12 31 26 12 11 14 13 9
16 15 17 15 15 14 13 13 12 12 14 8 10 5 16 13 11 15 20 23 16 11 10 12 10 7 7 11 16 12 16 14 18 17 18 21 15 12 24 17 16 15 15 16 12
15 15 17 15 14 14 15 13 9 3 18 12 9 12 2 8 8 11 16 17 18 18 12 15 9 17 22 22 18 15 17 16 17 17 21 20 19 15 18 21 18 14 14 18 16
14 14 15 14 13 14 13 10 9 4 8 31 31 24 23 5 9 14 16 18 19 16 15 10 21 25 14 17 18 21 18 17 15 20 20 19 17 16 10 17 24 19 18 22 20
15 12 14 12 13 16 19 20 18 15 7 9 34 31 20 18 18 16 23 26 15 17 17 19 20 16 18 18 20 22 23 16 15 15 9 8 12 10 12 22 21 24 22 27 24
14 12 12 12 11 14 14 11 15 16 5 5 7 9 26 8 7 24 22 25 12 18 17 15 19 20 19 23 19 22 23 22 19 17 11 11 4 15 21 16 10 13 13 31 28
15 14 14 14 5 10 6 3 3 5 5 7 6 5 6 15 2 13 29 24 18 15 9 10 11 18 22 21 20 19 17 22 27 11 4 6 5 9 10 19 9 10 21 32 30
17 16 16 16 17 11 9 4 6 2 7 5 5 7 7 11 7 7 26 26 20 16 14 13 14 12 16 21 20 22 15 20 18 11 8 13 9 6 6 13 13 11 22 31 31
18 14 22 20 16 20 12 14 2 5 2 4 4 6 13 9 10 6 16 20 11 6 13 7 19 8 5 12 20 22 14 8 7 6 4 16 8 6 4 8 14 14 26 32 31
16 15 24 22 13 16 20 3 7 7 6 3 3 8 8 7 7 12 7 17 18 10 2 9 8 14 14 11 15 24 22 3 5 5 6 15 6 5 7 10 23 26 31 32 31
16 18 22 26 21 19 14 4 5 3 4 6 5 6 6 7 7 13 13 12 14 19 7 3 9 5 10 15 16 10 9 17 6 10 6 4 4 4 8 6 10 21 29 31 31
19 20 25 27 24 24 4 8 6 4 5 5 9 13 9 10 8 11 13 10 18 18 15 3 6 6 12 8 9 7 8 10 4 7 7 6 8 5 10 9 8 13 22 29 30
17 8 10 27 27 16 5 7 7 13 10 7 9 10 12 10 13 12 9 11 13 12 13 5 3 1 1 8 13 8 6 9 4 5 5 5 1 10 9 12 11 11 26 31 32
17 3 20 29 5 3 4 5 4 6 21 12 10 15 11 11 13 10 12 5 19 13 10 9 4 4 6 4 12 10 8 11 3 2 1 4 2 6 9 8 10 14 28 32 32
15 6 29 35 6 6 6 6 9 3 6 9 9 13 7 6 8 13 12 8 26 13 11 12 5 2 5 8 1 4 7 5 5 3 3 3 3 7 8 8 7 16 27 31 30
10 4 7 15 8 6 9 7 6 17 17 15 13 16 9 10 10 6 9 6 20 16 17 9 6 6 5 6 11 6 7 6 5 1 2 2 6 6 7 9 7 17 24 30 31
10 4 9 5 7 11 5 5 7 6 13 19 7 17 10 8 9 7 11 6 9 13 11 4 4 13 10 18 17 14 9 8 9 7 1 3 7 9 10 10 12 19 25 29 28
10 4 9 4 12 15 15 9 13 6 4 9 14 9 15 9 8 11 12 10 8 8 15 12 6 12 10 6 12 13 13 12 10 7 7 9 5 7 11 22 17 20 23 26 29
13 8 1 5 8 8 6 10 11 11 13 21 13 15 12 12 10 19 17 17 8 10 11 6 4 5 4 4 5 4 8 14 9 8 8 10 7 4 6 7 15 22 24 23 23
Wind_Direction
292 293 297 300 296 288 280 273 264 256 246 241 235 237 243 256 265 266 262 244 250 253 273 266 291 252 236 241 241 243 243 237 233 247 264 250 162 257 242 275 281 280 285 114 357
284 284 292 297 298 296 288 278 270 265 258 250 247 245 249 255 265 259 261 250 247 257 268 275 265 248 231 224 229 232 224 238 239 248 267 278 190 240 297 281 284 283 271 230 258
279 277 284 291 289 286 291 291 287 275 266 258 253 246 246 256 286 272 273 265 252 250 250 262 264 275 265 227 217 224 234 250 240 252 266 271 308 293 277 268 273 273 310 311 322
278 273 276 288 285 284 290 290 289 284 272 262 255 249 241 223 242 196 234 246 242 237 246 250 250 249 254 240 228 229 231 232 258 270 259 241 273 280 273 281 281 293 297 291 289
286 275 269 277 276 283 296 306 300 285 268 253 247 240 215 210 231 237 349 93 16 237 216 228 238 241 242 245 238 242 244 246 239 253 267 242 235 263 271 272 276 280 273 268 259
282 280 266 265 265 271 288 295 296 277 272 255 245 236 214 238 242 233 249 244 277 267 212 228 242 241 268 249 258 260 244 261 265 250 238 263 251 251 255 259 263 271 270 281 269
281 280 268 257 257 264 282 290 291 277 274 264 246 242 235 230 236 225 238 239 249 257 267 231 236 268 252 262 289 257 267 247 244 246 246 230 246 241 259 261 258 261 274 251 235
279 272 273 255 252 258 265 277 276 283 272 263 256 239 248 250 228 231 220 235 246 249 242 246 260 254 271 298 311 280 233 250 239 249 238 234 256 250 258 248 239 241 240 232 251
282 271 270 260 245 255 258 270 278 260 271 259 262 227 265 267 224 228 221 218 222 239 240 238 252 256 258 246 271 242 234 224 243 235 229 223 246 243 258 269 211 245 228 175 169
280 270 265 267 241 246 250 262 275 273 266 217 229 262 252 238 235 228 218 221 232 239 241 219 223 225 214 206 220 222 226 238 220 227 238 234 233 234 272 231 218 237 248 164 161
273 263 257 261 239 235 242 261 284 273 222 202 207 204 151 273 216 209 204 207 220 234 228 207 212 219 211 213 229 249 251 239 239 211 234 233 226 224 231 252 255 224 240 161 158
266 261 247 249 234 232 240 231 219 238 278 234 239 235 229 302 234 214 188 195 201 216 214 219 226 226 226 236 239 240 251 268 243 247 221 238 226 229 225 246 230 226 213 160 151
257 260 245 233 227 230 235 244 262 266 266 208 225 229 221 224 231 220 196 200 201 212 208 216 236 232 238 234 236 239 238 244 254 230 267 239 246 243 232 233 220 228 216 170 160
247 246 228 212 228 230 239 255 269 278 269 203 212 239 222 209 247 224 212 203 224 223 215 235 240 239 229 233 230 234 238 233 250 255 198 202 254 217 230 225 224 197 203 155 156
238 233 219 207 175 179 206 197 218 180 282 118 165 189 218 187 100 220 204 217 224 214 194 219 214 223 230 235 238 239 243 220 240 238 171 246 220 249 245 209 190 193 207 156 161
230 227 209 200 202 217 223 231 149 126 251 162 134 183 179 199 207 289 192 208 222 237 225 247 259 231 224 229 234 250 256 275 241 211 221 202 205 245 201 172 176 184 164 155 159
225 227 213 198 207 220 211 140 121 230 79 184 181 188 213 203 213 196 199 205 204 193 230 230 244 239 317 252 224 230 210 226 218 194 221 191 182 254 55 121 174 166 150 154 159
221 222 218 191 193 190 156 107 228 238 204 118 191 203 218 203 209 199 213 205 214 218 333 224 242 196 192 234 212 207 209 205 166 193 153 164 204 213 146 112 133 150 153 158 162
215 210 210 192 201 180 153 199 228 235 179 181 176 211 215 201 242 198 218 213 210 204 212 262 231 207 202 212 186 184 217 239 265 188 127 186 126 51 111 93 135 144 152 161 168
205 196 203 206 189 181 187 220 231 224 156 205 215 198 203 186 191 198 201 201 224 208 191 189 280 193 196 208 199 208 204 205 232 165 164 181 184 176 162 154 157 152 161 164 171
197 177 201 198 181 177 217 221 254 229 181 211 234 243 245 167 202 194 217 240 193 186 145 174 212 288 254 188 170 185 214 233 111 232 145 130 180 154 161 158 172 166 165 168 175
180 164 173 175 171 185 222 202 211 234 207 233 255 278 230 193 200 194 243 225 170 149 174 177 271 274 244 281 177 176 227 233 226 42 298 113 135 77 102 122 155 179 169 171 175
158 129 177 179 191 200 226 232 207 267 226 201 248 236 241 240 188 205 230 218 144 158 165 161 217 193 341 151 42 212 227 280 351 312 213 66 172 110 108 111 146 159 160 167 171
160 156 161 198 227 215 212 225 220 222 239 226 260 250 235 240 190 186 227 183 169 176 186 186 183 210 256 108 131 175 208 242 205 337 359 59 128 140 137 133 130 150 159 165 169
175 189 172 177 220 231 193 232 210 232 214 203 247 251 221 217 214 214 227 208 183 193 174 229 250 214 243 132 156 169 184 241 207 224 23 237 137 169 166 158 161 161 159 162 172
151 191 173 183 203 212 226 231 238 204 260 216 234 256 236 211 209 196 182 226 175 185 202 220 297 313 88 74 154 173 188 204 218 212 242 271 303 156 172 147 145 166 170 173 180
178 191 176 173 187 197 213 217 219 211 233 250 242 235 277 211 255 218 189 207 182 171 185 183 251 314 51 83 82 349 206 197 209 218 213 223 239 103 97 134 154 169 179 179 180